Location: Rounton
(54.4000°N, 1.3500°W)
Time: 08:45:20
(UTC+00:00)

Altair - Pass Details

Date: 07 December 2021
Orbit: 1501 x 1683 km, 47.2° (Epoch: 24 January)

Event Time Altitude Azimuth Distance (km) Brightness Sun altitude
Rises 20:13:54 0° 281° (W) 4,697 11.0 -38.0°
Reaches altitude 10° 20:17:16 10° 273° (W) 3,693 10.2 -38.5°
Maximum altitude 20:25:21 36° 212° (SSW) 2,230 8.3 -39.6°
Enters shadow 20:25:37 36° 208° (SSW) 2,232 8.3 -39.6°
Drops below altitude 10° 20:33:20 10° 150° (SSE) 3,647 - -40.7°
Sets 20:36:39 0° 142° (SE) 4,632 - -41.2°
